Weather in Cromer

United Kingdom     52°55′47″N   1°18′13″E
temp.,
°C
wind,
m/s
gust,
m/s
humid.,
%
clouds,
%
prec.,
mm/h
press.,
hPa
HPBL,
m
17 june, thu
thu1701:00+16ssw3491100 1.6 100931
04:00+15se229892 0.6 100811
07:00+16wsw1296100 0.6 100821
10:00+16nnw3398100 0.4 100844
13:00+14nw4499100 0.6 1011106
16:00+14nnw679997 0.1 1012203
19:00+14nnw5798100 0.1 1013167
22:00+14n6896100 0.1 1014193
18 june, fri
fri1801:00+14nne7998100 1.8 1013204
04:00+14n5799100 3.1 1014201
07:00+14nne81099100 5.5 1014304
10:00+13nne111496100 0.8 1014506
13:00+13nne101494100 1.4 1014501
16:00+13nne111395100 3.1 1013494
19:00+13n101395100 5.1 1013552
22:00+13n91195100 1.4 1014551
19 june, sat
sat1901:00+13n8989100 2.1 1015645
04:00+13nne6785100 0.1 1016573
07:00+13nnw238699 0.1 1017332
10:00+13nne218540 0.1 1018194
13:00+13e448312 0.1 1017214
16:00+15se678093 0.0 1016322
19:00+14ese7885100 0.0 1015352
22:00+13ese798913 0.0 1014392
20 june, sun
sun2001:00+13e9128899 0.0 1012399
04:00+13e12179299 0.0 1008417
07:00+14e132190100 0.0 1004545
10:00+14e91397100 4.5 1000575
13:00+15sw6894100 5.7 1000179
16:00+18sw668429 0.2 1001140
19:00+18sw56831 1.0 1002100
22:00+16s568970 0.1 100367
21 june, mon
mon2101:00+14s589285 0.1 1004110
04:00+14s589340 0.0 1004122
07:00+14s5889100 0.0 1005151
10:00+16s568144 0.1 1005139
13:00+18s797535 0.8 1005206
16:00+18s71075100 1.1 1005199
19:00+17sse79816 1.5 1004179
22:00+15sse59909 0.0 1004140